NOAA 16 DEB, 41537

Orbit data source: Space-Track

NOAA 16 DEB, 41537 is space debris in SSO originally from a launch on Thu, 21 Sep 2000 UTC launched from the Air Force Western Test Range (AFWTR). Debris objects in space refer to the collection of defunct objects orbiting the Earth. Examples of debris include non-operational satellites, rocket bodies, and fragments generated from explosions, collisions, or faulty payload assembly.

Loading next visibility...
Identifier
41537, 2000-055NM
Orbit
SSO
Country
Flag of USUS
Related business
Manufacturer
Unknown
Mission
Spacecraft
Bus & Motor
Unknown
Mass
Unknown
Launch date (UTC)
2000-09-21 (25 years ago)
Launch vehicle
Unknown
Launch site
Air Force Western Test Range (AFWTR)
Object type
Payload
Rocket body
Debris
Shape & HBR
Unknown shape, 0.1 m
Radar Cross Section
Small (<0.1 m²)

Expand to show TLE details & history
Last TLE update: 22 hours ago

TLE from 22 hours ago
0 NOAA 16 DEB
1 41537U 00055NM  25292.90726470  .00004194  00000-0  18946-2 0  9993
2 41537  98.6179 356.9607 0003043 272.7230  87.3600 14.22610225503446
Epoch: 2025-10-19T21:46Z
TLE epoch observation values (Epoch: 2025-10-19T21:46:27.670Z)
Latitude
0.00001°
Longitude
1.72821°
Altitude
819.359 km
Speed
7.444 km/s
True Right ascension
23h 47m 50s
True Declination
0° 00' 00"
Sunlit
Object was in full shadow at epoch
Visualization orbit readout
Latitude
Unknown
Longitude
Unknown
Altitude
Unknown
Speed
Unknown
Apparent Right ascension
Unknown
Apparent Declination
Unknown
Sunlit
N/A
Visualization observer readout
Local Sidereal Time
14:59:26
Azimuth
Unknown
Elevation
Unknown
Doppler factor
Unknown
Orbital elements
Apogee altitude
815.878 km
Perigee altitude
811.501 km
Semi-major axis
7,191.826 km
Eccentricity
0.0003
Inclination
98.6179°
RAAN
356.9607°
Arg. of periapsis
272.723°
True anomaly
87.39483°
Mean anomaly
87.36°
Eccentric anomaly
87.37742°
Mean motion
3.55864 °/min
Orbital period
101.16 mins
BSTAR
0.0018946
Loading maneuver chart data...
Computing Atmospheric mass density...
Loading historical data...
Loading historical data...
Loading historical data...
Loading historical data...
Loading historical data...
Loading historical data...
Loading historical data...

Documentation

Showing up to 5 results
|